ATLAS 5 CENTAUR DEB, 44893

Orbit data source: Space-Track

ATLAS 5 CENTAUR DEB, 44893 is space debris in HEO originally from a launch on Wed, 17 Sep 2014 UTC launched from the Air Force Eastern Test Range (AFETR). Debris objects in space refer to the collection of defunct objects orbiting the Earth. Examples of debris include non-operational satellites, rocket bodies, and fragments generated from explosions, collisions, or faulty payload assembly.

Loading next visibility...
Identifier
44893, 2014-055CJ
Orbit
HEO
Country
Flag of USUS
Related business
Flag of USUnited Launch Alliance/Lockheed Martin (US)
Manufacturer
Unknown
Mission
Spacecraft
Bus & Motor
Unknown
Mass
Unknown
Launch date (UTC)
2014-09-17 (11 years ago)
Launch vehicle
Unknown
Launch site
Air Force Eastern Test Range (AFETR)
Object type
Payload
Rocket body
Debris
Shape & HBR
Unknown shape, 1.1 m
Radar Cross Section
Small (<0.1 m²)

Expand to show TLE details & history
Last TLE update: 1 month ago

TLE from 1 month ago
0 ATLAS 5 CENTAUR DEB
1 44893U 14055CJ  25257.17746751 -.00000073  00000-0  00000-0 0  9993
2 44893  19.9755 156.8371 4918718 142.1062 265.5144  1.88260565 40058
Epoch: 2025-09-14T04:15Z
TLE epoch observation values (Epoch: 2025-09-14T04:15:33.192Z)
Latitude
0.00003°
Longitude
99.53471°
Altitude
27,973.557 km
Speed
2.97 km/s
True Right ascension
10h 27m 17s
True Declination
0° 00' 00"
Sunlit
Object was in daylight at epoch
Visualization orbit readout
Latitude
Unknown
Longitude
Unknown
Altitude
Unknown
Speed
Unknown
Apparent Right ascension
Unknown
Apparent Declination
Unknown
Sunlit
N/A
Visualization observer readout
Local Sidereal Time
02:09:21
Azimuth
Unknown
Elevation
Unknown
Doppler factor
Unknown
Orbital elements
Apogee altitude
34,957.552 km
Perigee altitude
7,700.706 km
Semi-major axis
27,707.266 km
Eccentricity
0.49187
Inclination
19.9755°
RAAN
156.8371°
Arg. of periapsis
142.1062°
True anomaly
217.8668°
Mean anomaly
265.5144°
Eccentric anomaly
240.8916°
Mean motion
0.4706 °/min
Orbital period
764.98 mins
BSTAR
0
Loading maneuver chart data...
Computing Atmospheric mass density...

Documentation

Showing up to 5 results
|